Location: Ferchesar
(52.6477°N, 12.4298°E)
Time: 14:46:10
(UTC+01:00)

deb Explorer IX - Pass Details

Date: 09 December 2021
Orbit: 544 x 1082 km, 38.8° (Epoch: 18 January)

Event Time Altitude Azimuth Distance (km) Brightness Sun altitude
Rises 10:49:46 0° 244° (WSW) 3,128 ? 12.8°
Reaches altitude 10° 10:53:19 10° 220° (SW) 2,089 ? 13.0°
Maximum altitude 10:55:51 14° 188° (S) 1,741 ? 13.1°
Drops below altitude 10° 10:58:15 10° 155° (SSE) 1,946 ? 13.2°
Sets 11:01:22 0° 130° (SE) 2,774 ? 13.3°
